Stations météo

Publicité
Limoges, France (7434): Température de l'air & dewpoint: 11.12.2018 14:00:00 - 17.12.2018 14:00:00 (CET)Limoges, France (7434): Température de l'air 5cm: 11.12.2018 14:00:00 - 17.12.2018 14:00:00 (CET)Limoges, France (7434): Température de l'air -20cm & Température de l'air -100cm: 11.12.2018 14:00:00 - 17.12.2018 14:00:00 (CET)Limoges, France (7434): Vitesse du vent & gusts: 11.12.2018 14:00:00 - 17.12.2018 14:00:00 (CET)Limoges, France (7434): Direction du vent: 11.12.2018 14:00:00 - 17.12.2018 14:00:00 (CET)Limoges, France (7434): reduced air pressure: 11.12.2018 14:00:00 - 17.12.2018 14:00:00 (CET)Limoges, France (7434): visibility: 11.12.2018 14:00:00 - 17.12.2018 14:00:00 (CET)Limoges, France (7434): Ensoleillement: 11.12.2018 14:00:00 - 17.12.2018 14:00:00 (CET)Limoges, France (7434): Quantités de précipitations: 11.12.2018 14:00:00 - 17.12.2018 14:00:00 (CET)
Date & Time tt [°C] td [°C] tt 5cm [°C] tt -20cm [°C] tt -100cm [°C] ff [km/h] ff [knt] fx [km/h] fx [knt] dd ppp [hPa] vv [km] sd [min] rr [mm]
17.12.2018 14:00:00 8,9 6,9 - - - 13 7 18 10 SSW 1026,9 17 18 -
17.12.2018 13:00:00 8,2 6,3 10,6 7,8 10,3 10 6 18 10 SSW 1027,1 39 30 0,0
17.12.2018 12:00:00 7,5 6,1 8,3 7,7 10,3 9 5 13 7 S 1027,4 40 42 0,0
17.12.2018 11:00:00 5,6 5,2 6,0 7,8 10,4 10 5 15 8 SSW 1027,8 18 14 0,0
17.12.2018 10:00:00 5,2 4,9 4,7 7,8 10,4 10 5 22 12 SW 1027,1 5 19 0,0
17.12.2018 09:00:00 4,7 4,4 2,6 7,8 10,4 8 4 13 7 SSW 1026,1 13 0 0,0
17.12.2018 08:00:00 4,1 3,7 0,4 7,8 10,4 4 2 14 8 SW 1025,3 9 0 0,0
17.12.2018 07:00:00 4,7 4,4 3,0 7,8 10,4 10 5 16 9 SW 1024,4 11 0 0,0
17.12.2018 06:00:00 4,6 4,3 1,9 7,9 10,4 7 4 16 9 WSW 1023,3 13 0 0,0
17.12.2018 05:00:00 4,7 4,4 1,8 7,9 10,4 8 4 16 8 WSW 1022,5 12 0 0,0
17.12.2018 04:00:00 4,3 3,9 2,0 7,8 10,4 10 5 17 9 WSW 1022,2 14 0 0,0
17.12.2018 03:00:00 4,6 4,2 3,0 7,8 10,4 9 5 24 13 W 1021,5 10 0 0,0
17.12.2018 02:00:00 5,6 5,2 5,1 7,8 10,4 14 8 29 15 W 1020,4 12 0 0,0
17.12.2018 01:00:00 5,5 5,1 5,1 7,8 10,4 15 8 31 17 W 1019,7 38 0 0,0
17.12.2018 00:00:00 5,8 5,4 5,5 7,8 10,4 16 9 41 22 W 1018,7 20 0 0,0
16.12.2018 23:00:00 6,0 5,6 5,6 7,8 10,4 26 14 45 24 W 1017,1 41 0 0,2
16.12.2018 22:00:00 5,6 5,3 5,6 7,8 10,5 13 7 24 13 SW 1015,8 7 0 1,4
16.12.2018 21:00:00 5,9 5,5 5,7 7,7 10,5 15 8 35 19 SW 1015,3 8 0 1,2
16.12.2018 20:00:00 6,6 6,2 6,4 7,7 10,5 13 7 23 12 SSW 1014,5 33 0 0,2
16.12.2018 19:00:00 6,9 6,2 6,5 7,7 10,5 14 7 27 15 SSW 1014,1 46 0 0,0
16.12.2018 18:00:00 7,0 6,4 6,5 7,6 10,5 18 10 26 14 SSW 1013,6 13 0 0,0
16.12.2018 17:00:00 7,3 6,9 7,2 7,5 10,5 7 4 18 10 S 1013,3 16 0 0,0
16.12.2018 16:00:00 7,4 7,1 7,9 7,5 10,5 10 5 16 9 S 1013,0 16 0 0,0
16.12.2018 15:00:00 7,1 7,0 8,0 7,5 10,6 9 5 18 10 S 1012,7 13 2 0,0
16.12.2018 14:00:00 6,4 6,3 7,1 7,5 10,6 9 5 18 10 SE 1013,2 8 0 0,0
16.12.2018 13:00:00 6,2 6,1 7,1 7,4 10,5 11 6 19 10 ESE 1014,0 0,1 0 0,0
16.12.2018 12:00:00 6,0 5,9 7,3 7,4 10,6 11 6 18 10 SE 1014,7 0,1 0 0,0
16.12.2018 11:00:00 6,3 6,2 6,6 7,4 10,6 10 5 16 8 SE 1015,4 0,1 0 0,0
16.12.2018 10:00:00 6,0 5,9 6,0 7,3 10,6 9 5 11 6 ESE 1015,2 0,1 0 0,0
16.12.2018 09:00:00 6,0 5,9 5,8 7,3 10,6 5 3 9 5 SE 1015,3 0,1 0 0,0
16.12.2018 08:00:00 6,3 6,2 6,0 7,3 10,6 4 2 7 4 SE 1015,2 0,1 0 0,0
16.12.2018 07:00:00 6,2 6,1 4,4 7,2 10,6 3 2 13 7 S 1015,4 0,1 0 0,0
16.12.2018 06:00:00 6,0 5,9 4,5 7,2 10,6 2 1 8 5 SSE 1015,2 0,1 0 0,0
16.12.2018 05:00:00 6,7 6,6 6,4 7,2 10,7 5 3 11 6 SW 1016,1 0,1 0 0,2
16.12.2018 04:00:00 6,7 6,6 6,3 7,2 10,7 6 3 16 8 WSW 1015,6 0,1 0 0,0
16.12.2018 03:00:00 6,5 6,4 6,1 7,1 10,7 12 6 24 13 SW 1015,9 0,1 0 0,0
16.12.2018 02:00:00 6,3 6,2 5,9 7,1 10,7 17 9 31 17 SW 1015,6 0,2 0 0,0
16.12.2018 01:00:00 6,1 6,0 5,4 7,1 10,7 19 10 31 17 SSW 1015,6 0,7 0 0,2
16.12.2018 00:00:00 5,6 5,5 5,0 7,1 10,7 15 8 29 15 S 1015,4 3,4 0 0,2
15.12.2018 23:00:00 5,1 5,0 4,7 7,1 10,7 15 8 29 16 S 1015,4 3,0 0 1,0
15.12.2018 22:00:00 4,9 4,8 4,2 7,1 10,7 10 6 19 11 SSE 1015,7 0,8 0 1,6
15.12.2018 21:00:00 4,3 4,2 4,0 7,1 10,7 8 4 18 10 ESE 1016,1 0,6 0 0,6
15.12.2018 20:00:00 4,0 3,9 3,6 7,1 10,7 10 5 26 14 ESE 1016,8 1,3 0 0,4
15.12.2018 19:00:00 3,6 3,5 2,9 7,1 10,7 14 8 24 13 SSE 1016,9 1,6 0 3,4
15.12.2018 18:00:00 2,9 2,8 2,3 7,2 10,8 12 6 22 12 SE 1017,4 1,1 0 1,7
15.12.2018 17:00:00 2,2 1,9 1,7 7,1 10,8 13 7 20 11 SE 1018,0 0,4 0 1,6
15.12.2018 16:00:00 1,4 0,8 1,4 7,2 10,8 11 6 23 13 SE 1018,7 2,7 0 1,4
15.12.2018 15:00:00 1,0 0,1 1,3 7,2 10,8 13 7 24 13 SE 1018,9 3,5 0 1,2
15.12.2018 14:00:00 0,9 -0,6 1,3 7,2 10,8 12 7 20 11 ESE 1019,7 6 0 0,8
15.12.2018 13:00:00 0,7 -1,5 0,8 7,2 10,8 11 6 19 11 E 1020,8 11 0 0,2
15.12.2018 12:00:00 0,0 -1,4 0,0 7,3 10,8 12 6 19 10 E 1021,6 15 0 0,0
15.12.2018 11:00:00 -0,8 -1,6 -0,5 7,4 10,8 9 5 18 10 E 1022,9 9 0 0,0
15.12.2018 10:00:00 -1,6 -2,0 -1,6 7,4 10,8 10 5 18 10 ESE 1022,7 7 0 0,0
15.12.2018 09:00:00 -2,2 -2,6 -2,5 7,5 10,9 10 6 18 10 E 1022,6 4,7 0 0,0
15.12.2018 08:00:00 -2,7 -3,1 -3,6 7,5 10,9 9 5 18 10 E 1022,6 4,1 0 0,0
15.12.2018 07:00:00 -3,1 -3,5 -3,5 7,6 10,9 9 5 15 8 E 1023,1 3,2 0 0,0
15.12.2018 06:00:00 -3,4 -3,7 -3,8 7,6 10,9 10 6 15 8 E 1023,3 0,4 0 0,0
15.12.2018 05:00:00 -4,1 -4,5 -4,2 7,7 10,9 10 5 17 9 E 1023,8 0,3 0 0,0
15.12.2018 04:00:00 -4,2 -5,0 -4,9 7,7 10,9 8 4 14 7 E 1024,0 4,4 0 0,0
15.12.2018 03:00:00 -4,1 -5,2 -4,7 7,8 10,9 7 4 14 8 E 1024,0 6 0 0,0
15.12.2018 02:00:00 -4,0 -5,1 -4,9 7,8 10,9 8 4 12 7 E 1023,9 5 0 0,0
15.12.2018 01:00:00 -3,8 -5,1 -5,0 7,9 10,9 8 4 13 7 E 1024,2 5 0 0,0
15.12.2018 00:00:00 -3,4 -4,7 -4,4 7,9 10,9 9 5 13 7 E 1024,4 5 0 0,0
14.12.2018 23:00:00 -2,9 -4,5 -3,9 8,0 10,9 8 5 15 8 E 1024,4 6 0 0,0
14.12.2018 22:00:00 -2,4 -4,1 -2,5 8,0 10,9 4 2 11 6 N 1024,5 6 0 0,0
14.12.2018 21:00:00 -2,1 -3,8 -2,5 8,0 10,9 2 1 13 7 N 1024,6 8 0 0,0
14.12.2018 20:00:00 -1,9 -3,8 -2,6 8,0 10,9 4 2 13 7 NE 1024,1 7 0 0,0
14.12.2018 19:00:00 -1,9 -3,3 -2,6 8,1 11,0 6 3 16 8 NE 1023,0 7 0 0,0
14.12.2018 18:00:00 -2,0 -3,6 -2,1 8,1 11,0 9 5 18 10 N 1022,7 7 0 0,0
14.12.2018 17:00:00 -1,8 -3,2 -2,3 8,1 11,0 9 5 18 10 NNW 1022,7 6 6 0,0
14.12.2018 16:00:00 -1,2 -3,1 -0,4 8,1 11,0 14 7 20 11 NW 1022,2 7 24 0,0
14.12.2018 15:00:00 -0,9 -2,3 1,6 8,1 11,0 11 6 24 13 N 1020,7 6 8 0,0
14.12.2018 14:00:00 -0,2 -1,6 2,4 8,1 11,0 10 6 21 11 NW 1020,3 4,6 14 0,0
14.12.2018 13:00:00 1,1 -0,5 4,7 8,1 11,0 7 4 11 6 NW 1019,4 9 39 0,0
14.12.2018 12:00:00 0,2 -0,7 1,4 8,1 11,0 3 2 12 7 ENE 1019,0 8 27 0,0
14.12.2018 11:00:00 -0,3 -0,9 -0,8 8,2 11,0 10 5 16 9 NNE 1019,0 8 60 0,0
14.12.2018 10:00:00 -1,5 -1,6 -1,7 8,2 11,0 6 4 18 10 N 1018,8 6 7 0,0
14.12.2018 09:00:00 -1,7 -1,8 -1,2 8,2 11,0 8 4 16 9 N 1018,1 0,2 0 0,0
14.12.2018 08:00:00 -1,6 -1,7 -1,1 8,3 11,0 6 3 14 8 N 1016,8 0,2 0 0,0
14.12.2018 07:00:00 -1,3 -1,4 -1,0 8,4 11,0 6 3 11 6 NE 1015,8 0,2 0 0,0
14.12.2018 06:00:00 -1,4 -1,5 -1,0 8,4 11,0 9 5 18 10 NNE 1015,1 0,1 0 0,0
14.12.2018 05:00:00 -1,3 -1,4 -1,0 8,4 11,1 6 4 10 6 N 1014,8 0,1 0 0,0
14.12.2018 04:00:00 -1,6 -1,7 -1,5 8,5 11,1 8 4 11 6 NNW 1014,8 0,1 0 0,0
14.12.2018 03:00:00 -1,4 -1,5 -1,5 8,5 11,1 5 3 16 9 NNE 1014,5 0,1 0 0,0
14.12.2018 02:00:00 -1,0 -1,3 -1,5 8,6 11,1 9 5 16 9 NW 1013,8 0,3 0 0,0
14.12.2018 01:00:00 -1,0 -1,4 -1,8 8,6 11,1 8 5 14 8 NNW 1013,5 0,1 0 0,0
14.12.2018 00:00:00 -0,2 -1,5 -1,9 8,6 11,1 2 1 13 7 N 1013,0 2,3 0 0,0
13.12.2018 23:00:00 0,9 -0,1 -1,1 8,6 11,1 6 4 16 9 NNE 1012,0 3,9 0 0,0
13.12.2018 22:00:00 1,4 0,1 -0,5 8,7 11,1 8 5 14 8 N 1011,7 4,6 0 0,0
13.12.2018 21:00:00 2,5 0,9 0,9 8,7 11,1 8 4 16 9 N 1010,9 7 0 0,0
13.12.2018 20:00:00 2,1 0,9 1,2 8,7 11,1 11 6 18 10 N 1010,3 6 0 0,0
13.12.2018 19:00:00 3,5 2,0 2,7 8,6 11,1 11 6 19 11 N 1009,4 10 0 0,0
13.12.2018 18:00:00 4,3 2,6 3,7 8,6 11,1 11 6 17 9 N 1008,7 12 0 0,0
13.12.2018 17:00:00 5,9 3,2 5,0 8,6 11,2 9 5 16 8 N 1007,9 33 0 0,0
13.12.2018 16:00:00 7,0 2,1 7,2 8,5 11,1 6 4 11 6 NE 1007,2 58 0 0,0
13.12.2018 15:00:00 7,1 2,4 9,0 8,5 11,2 8 4 11 6 ENE 1006,7 57 0 0,0
13.12.2018 14:00:00 6,7 1,8 9,5 8,5 11,2 3 2 9 5 E 1007,0 60 0 0,0
13.12.2018 13:00:00 6,4 2,1 8,5 8,5 11,2 6 3 13 7 ESE 1007,3 48 0 0,0
13.12.2018 12:00:00 5,9 2,0 6,5 8,6 11,2 9 5 17 9 E 1007,6 49 17 0,0
13.12.2018 11:00:00 4,7 2,4 4,6 8,6 11,2 10 5 22 12 E 1008,1 39 19 0,0
13.12.2018 10:00:00 3,7 2,5 2,7 8,6 11,2 13 7 19 10 E 1008,1 17 45 0,0
13.12.2018 09:00:00 3,0 2,4 2,2 8,6 11,2 9 5 16 9 E 1008,5 11 5 0,0
13.12.2018 08:00:00 3,0 2,6 2,2 8,6 11,3 9 5 14 7 E 1008,8 7 0 0,0
13.12.2018 07:00:00 3,3 2,7 2,5 8,6 11,3 9 5 14 7 E 1009,0 7 0 0,0
13.12.2018 06:00:00 3,5 3,1 3,1 8,7 11,3 9 5 15 8 ESE 1009,8 6 0 0,0
13.12.2018 05:00:00 3,6 3,2 3,5 8,7 11,3 9 5 22 12 SE 1010,5 4,2 0 0,0
13.12.2018 04:00:00 3,4 2,8 3,0 8,6 11,3 13 7 21 11 ESE 1011,3 4,5 0 0,0
13.12.2018 03:00:00 3,6 2,9 3,5 8,7 11,3 8 4 23 13 ESE 1012,1 9 0 0,0
13.12.2018 02:00:00 3,5 3,1 3,6 8,7 11,3 12 6 22 12 SSE 1012,8 6 0 0,0
13.12.2018 01:00:00 3,7 3,0 3,8 8,7 11,3 10 6 19 11 SSE 1013,4 1,4 0 0,0
13.12.2018 00:00:00 4,1 2,9 3,7 8,7 11,3 10 5 14 8 E 1014,1 10 0 0,0
12.12.2018 23:00:00 4,2 2,7 4,0 8,7 11,3 5 3 9 5 ESE 1015,1 11 0 0,0
12.12.2018 22:00:00 4,1 2,6 3,9 8,7 11,3 6 4 13 7 SE 1015,7 11 0 0,0
12.12.2018 21:00:00 4,0 2,2 2,8 8,7 11,3 8 5 14 8 ESE 1016,2 12 0 0,0
12.12.2018 20:00:00 3,6 1,8 2,5 8,7 11,3 5 3 10 6 ESE 1016,8 17 0 0,0
12.12.2018 19:00:00 4,0 2,0 3,9 8,7 11,3 4 2 9 5 ESE 1017,2 17 0 0,0
12.12.2018 18:00:00 4,1 2,0 4,0 8,7 11,4 5 3 7 4 ESE 1017,6 19 0 0,0
12.12.2018 17:00:00 4,2 1,7 4,5 8,7 11,4 4 2 9 5 ESE 1017,9 26 0 0,0
12.12.2018 16:00:00 4,1 1,8 5,1 8,6 11,3 5 3 12 7 ESE 1017,9 23 0 0,0
12.12.2018 15:00:00 4,1 1,6 5,9 8,7 11,3 6 4 11 6 SSE 1018,0 27 0 0,0
12.12.2018 14:00:00 3,9 1,3 7,1 8,7 11,4 6 3 14 8 SE 1018,5 27 0 0,0
12.12.2018 13:00:00 3,6 1,0 3,7 8,7 11,4 10 5 19 11 SE 1019,3 27 22 0,0
12.12.2018 12:00:00 2,7 -0,2 3,2 8,8 11,4 7 4 11 6 ESE 1020,1 27 0 0,0
12.12.2018 11:00:00 2,1 -0,7 2,5 8,8 11,4 5 3 11 6 E 1020,8 40 0 0,0
12.12.2018 10:00:00 1,5 -0,9 0,8 8,8 11,4 4 2 10 5 ENE 1021,2 29 0 0,0
12.12.2018 09:00:00 0,8 -1,3 -0,4 8,9 11,4 8 5 11 6 NE 1021,0 22 0 0,0
12.12.2018 08:00:00 0,9 -1,3 -0,8 8,9 11,4 8 4 10 5 ENE 1020,8 27 0 0,0
12.12.2018 07:00:00 1,2 -0,9 -0,2 9,0 11,4 5 3 11 6 ENE 1020,8 29 0 0,0
12.12.2018 06:00:00 1,1 -0,8 0,2 9,1 11,4 5 3 10 6 NE 1021,1 22 0 0,0
12.12.2018 05:00:00 1,0 -0,6 0,2 9,1 11,4 7 4 13 7 ENE 1021,2 18 0 0,0
12.12.2018 04:00:00 1,6 -0,7 0,3 9,1 11,4 6 4 12 6 ENE 1021,6 24 0 0,0
12.12.2018 03:00:00 2,0 -0,6 0,9 9,2 11,4 6 3 11 6 ENE 1021,9 28 0 0,0
12.12.2018 02:00:00 2,1 -0,5 0,7 9,2 11,4 8 4 11 6 NE 1021,8 31 0 0,0
12.12.2018 01:00:00 2,1 -0,5 -0,1 9,3 11,4 9 5 17 9 E 1022,1 37 0 0,0
12.12.2018 00:00:00 2,9 -0,6 1,5 9,4 11,4 13 7 19 10 ENE 1021,7 46 0 0,0
11.12.2018 23:00:00 3,0 -0,1 1,6 9,4 11,4 13 7 22 12 NE 1021,8 46 0 0,0
11.12.2018 22:00:00 3,3 0,3 1,7 9,4 11,5 11 6 22 12 ENE 1022,0 39 0 0,0
11.12.2018 21:00:00 3,6 0,6 2,2 9,5 11,5 15 8 22 12 ENE 1022,4 39 0 0,0
11.12.2018 20:00:00 4,1 1,3 2,6 9,4 11,5 16 9 25 14 ENE 1022,2 37 0 0,0
11.12.2018 19:00:00 4,6 0,9 2,8 9,5 11,5 16 9 21 11 NE 1022,5 41 0 0,0
11.12.2018 18:00:00 5,6 0,8 2,9 9,5 11,5 10 5 16 8 NNE 1022,4 59 0 0,0
11.12.2018 17:00:00 6,4 0,7 4,1 9,4 11,4 9 5 17 9 NE 1022,3 60 26 0,0
11.12.2018 16:00:00 7,8 1,0 7,1 9,4 11,4 14 8 21 12 ENE 1022,1 58 53 0,0
11.12.2018 15:00:00 8,0 0,9 9,3 9,4 11,5 13 7 25 14 E 1022,5 44 60 0,0
11.12.2018 14:00:00 7,4 2,3 9,0 9,4 11,5 13 7 24 13 ENE 1023,2 56 60 0,0

tt = Température de l'air
td = dewpoint
tt 5cm = Température de l'air 5cm
tt -20cm = Température de l'air -20cm
tt -100cm = Température de l'air -100cm
ff = Vitesse du vent
fx = gusts
dd = Direction du vent
ppp = reduced air pressure
vv = visibility
sd = Ensoleillement
rr = Quantités de précipitations

stations d'obs. à proximité